Tracking 19564 objects as of 19-Mar-2019
HD Live streaming from Space Station
objects crossing your sky now

RANGE A

Track RANGE A now!
10-day predictions


NORAD ID: 43798
Int'l Code: 2018-099AS
Perigee: 579.6 km
Apogee: 595.1 km
Inclination: 97.8 °
Period: 96.3 minutes
Semi major axis: 6958 km
RCS: Unknown
Launch date: December 3, 2018
Source: (TBD)
Launch site: AIR FORCE WESTERN TEST RANGE (AFWTR)
aabbcc
Your satellite tracking list
Your tracking list is empty




NASA's NSSDC Master Catalog

Two Line Element Set (TLE):
1 43798U 18099AS  19077.65225949 -.00000199 +00000-0 -12669-4 0  9993
2 43798 097.7525 150.8153 0011128 259.5180 100.4787 14.95692780015660
Source of the keplerian elements: AFSPC